EW5206 Weather Reports


Display with metric or nautical units.
time (UTC)temp
F
wind
direction
speed
MPH
gust
MPH
rain 1hr
in
rain 24hr
in
rain mn
in
humidity
%
barometer
mb
20260902030018 76 0.0 0.0 0.00 0.00 0.00 75 1017.7
20260902024518 76 0.0 0.0 0.00 0.00 0.00 75 1017.5
20260902023017 76 0.0 0.0 0.00 0.00 0.00 75 1017.3
20260902021519 77 0.0 0.0 0.00 0.00 0.00 74 1017.4
20260902020017 77 0.0 0.0 0.00 0.00 0.00 74 1017.4
20260902014527 77 0.0 0.0 0.00 0.00 0.00 73 1017.2
20260902013016 77 0.0 0.0 0.00 0.00 0.00 72 1017.2
20260902011516 78 0.0 0.0 0.00 0.00 0.00 72 1017.0
20260902010016 78 0.0 0.0 0.00 0.00 0.00 72 1016.8
20260902004515 78 0.0 0.0 0.00 0.00 0.00 71 1016.5
20260902003014 79 0.0 0.0 0.00 0.00 0.00 69 1016.4
20260902001514 80 0.0 0.0 0.00 0.00 0.00 67 1016.3
20260902000023 81 0.0 0.0 0.00 0.00 0.00 66 1016.2
20260901234512 82 0.0 0.0 0.00 0.00 0.00 64 1016.3
20260901233012 83 0.0 0.0 0.00 0.00 0.00 62 1016.4
20260901231511 83 0.0 0.0 0.00 0.00 0.00 60 1016.6
20260901230027 84 0.0 0.0 0.00 0.00 0.00 59 1016.7
20260901224511 85 0.0 0.0 0.00 0.00 0.00 59 1016.7
20260901223009 85 0.0 0.0 0.00 0.00 0.00 57 1016.7
20260901221509 86 0.0 0.0 0.00 0.00 0.00 56 1016.5
20260901220009 86 0.0 0.0 0.00 0.00 0.00 56 1016.6
20260901214506 86 0.0 0.0 0.00 0.00 0.00 56 1016.7
20260901213014 86 0.0 0.0 0.00 0.00 0.00 55 1016.9
20260901211504 86 0.0 0.0 0.00 0.00 0.00 57 1016.9
20260901210009 87 0.0 0.0 0.00 0.00 0.00 56 1017.0
20260901204503 87 0.0 0.0 0.00 0.00 0.00 56 1017.1
20260901203005 87 0.0 0.0 0.00 0.00 0.00 56 1017.2
20260901201502 88 0.0 0.0 0.00 0.00 0.00 56 1017.1
20260901200100 88 0.0 0.0 0.00 0.00 0.00 54 1017.1
20260901194559 88 0.0 0.0 0.00 0.00 0.00 53 1017.3
20260901193102 88 0.0 0.0 0.00 0.00 0.00 53 1017.4
20260901191600 88 0.0 0.0 0.00 0.00 0.00 56 1017.5
20260901190055 88 0.0 0.0 0.00 0.00 0.00 54 1017.7
20260901184554 88 0.0 0.0 0.00 0.00 0.00 54 1017.9
20260901183054 89 0.0 0.0 0.00 0.00 0.00 52 1017.9
20260901181553 89 0.0 0.0 0.00 0.00 0.00 52 1017.9
20260901180053 89 0.0 0.0 0.00 0.00 0.00 53 1017.9
20260901174552 89 0.0 0.0 0.00 0.00 0.00 52 1018.1
20260901173052 90 0.0 0.0 0.00 0.00 0.00 53 1018.1
20260901171559 91 0.0 0.0 0.00 0.00 0.00 50 1018.0
20260901170051 90 0.0 0.0 0.00 0.00 0.00 54 1018.1
20260901164548 93 0.0 0.0 0.00 0.00 0.00 49 1018.3
20260901163045 93 0.0 0.0 0.00 0.00 0.00 52 1018.4
20260901161544 92 0.0 0.0 0.00 0.00 0.00 53 1018.5
20260901160043 92 0.0 0.0 0.00 0.00 0.00 51 1018.6
20260901154539 92 0.0 0.0 0.00 0.00 0.00 52 1018.6
20260901153037 91 0.0 0.0 0.00 0.00 0.00 55 1018.7
20260901151534 89 0.0 0.0 0.00 0.00 0.00 59 1018.6
20260901150030 85 0.0 0.0 0.00 0.00 0.00 65 1018.9
20260901144529 86 0.0 0.0 0.00 0.00 0.00 63 1019.0
20260901143029 86 0.0 0.0 0.00 0.00 0.00 61 1018.9
20260901141536 87 0.0 0.0 0.00 0.00 0.00 63 1018.8
20260901140026 86 0.0 0.0 0.00 0.00 0.00 63 1019.0
20260901134523 85 0.0 0.0 0.00 0.00 0.00 66 1019.2
20260901133018 82 0.0 0.0 0.00 0.00 0.00 72 1019.2
20260901131522 79 0.0 0.0 0.00 0.00 0.00 78 1019.3
20260901130010 75 0.0 0.0 0.00 0.00 0.00 84 1019.4
20260901124506 72 0.0 0.0 0.00 0.00 0.00 91 1019.4
20260901123005 68 0.0 0.0 0.00 0.00 0.00 95 1019.4
20260901121505 66 0.0 0.0 0.00 0.00 0.00 97 1019.3
20260901120001 65 0.0 0.0 0.00 0.00 0.00 96 1019.1
20260901114602 65 0.0 0.0 0.00 0.00 0.00 95 1019.0
20260901113110 65 0.0 0.0 0.00 0.00 0.00 96 1018.8
20260901111600 65 0.0 0.0 0.00 0.00 0.00 96 1018.6
20260901110108 65 0.0 0.0 0.00 0.00 0.00 95 1018.6
20260901104602 65 0.0 0.0 0.00 0.00 0.00 95 1018.3
20260901103058 65 0.0 0.0 0.00 0.00 0.00 95 1018.3
20260901101556 65 0.0 0.0 0.00 0.00 0.00 95 1018.1
20260901100056 65 0.0 0.0 0.00 0.00 0.00 95 1018.1
20260901094555 65 0.0 0.0 0.00 0.00 0.00 94 1018.0
20260901093053 66 0.0 0.0 0.00 0.00 0.00 94 1018.0
20260901091551 66 0.0 0.0 0.00 0.00 0.00 94 1017.8
20260901090055 66 0.0 0.0 0.00 0.00 0.00 94 1017.8
20260901084549 66 0.0 0.0 0.00 0.00 0.00 93 1017.7
20260901083047 67 0.0 0.0 0.00 0.00 0.00 93 1017.8
20260901081548 67 0.0 0.0 0.00 0.00 0.00 92 1017.8
20260901080045 67 0.0 0.0 0.00 0.00 0.00 92 1018.1
20260901074542 67 0.0 0.0 0.00 0.00 0.00 91 1018.0
20260901073040 68 0.0 0.0 0.00 0.00 0.00 90 1018.1
20260901071545 68 0.0 0.0 0.00 0.00 0.00 90 1018.3
20260901070036 68 0.0 0.0 0.00 0.00 0.00 90 1018.2
20260901064540 69 0.0 0.0 0.00 0.00 0.00 89 1018.2
20260901063033 70 0.0 0.0 0.00 0.00 0.00 87 1018.3
20260901061528 70 0.0 0.0 0.00 0.00 0.00 87 1018.4
20260901060026 70 0.0 0.0 0.00 0.00 0.00 86 1018.6
20260901054525 70 0.0 0.0 0.00 0.00 0.00 86 1018.7
20260901053024 70 0.0 0.0 0.00 0.00 0.00 87 1018.9
20260901051522 71 0.0 0.0 0.00 0.00 0.00 86 1018.9
20260901050020 71 0.0 0.0 0.00 0.00 0.00 84 1018.9
20260901044517 72 0.0 0.0 0.00 0.00 0.00 84 1019.0
20260901043018 72 0.0 0.0 0.00 0.00 0.00 83 1018.9
20260901041515 72 0.0 0.0 0.00 0.00 0.00 82 1018.9
20260901040014 72 0.0 0.0 0.00 0.00 0.00 83 1019.0
20260901034515 73 0.0 0.0 0.00 0.00 0.00 82 1018.9
20260901033012 73 0.0 0.0 0.00 0.00 0.00 82 1018.9
20260901031512 73 0.0 0.0 0.00 0.00 0.00 80 1018.8